Location: Sedan
(39.2354°N, 78.5718°W)
Time: 07:01:50
(UTC+00:00)

X-37B - Visible Passes

Search period start: 04 December 2021 00:00
Search period end: 14 December 2021 00:00
Orbit: 330 x 341 km, 45.0° (Epoch: 20 November)

Date Brightness Start Highest point End Pass type
(mag) Time Alt. Az. Time Alt. Az. Time Alt. Az.
04 Dec 2.9 23:54:14 10° SW 23:55:10 18° SSW 23:55:10 18° SSW visible
05 Dec 2.5 22:40:22 10° S 22:42:09 15° SE 22:43:42 11° ESE visible
06 Dec 3.7 00:14:30 10° WSW 00:14:56 13° WSW 00:14:56 13° WSW visible
06 Dec 1.0 22:59:39 10° SW 23:02:22 41° SSE 23:03:24 28° E visible
07 Dec 0.2 23:19:55 10° WSW 23:22:46 73° NNW 23:23:02 65° NNE visible
08 Dec 1.9 23:40:38 10° W 23:42:38 30° NW 23:42:38 30° NW visible
09 Dec 0.4 22:25:21 10° WSW 22:28:13 74° NNW 22:30:58 11° ENE visible
10 Dec 3.3 00:01:30 10° WNW 00:02:11 15° WNW 00:02:11 15° WNW visible
10 Dec 1.3 22:46:03 10° W 22:48:45 36° NNW 22:50:30 18° NE visible
11 Dec 1.8 23:06:56 10° WNW 23:09:24 25° N 23:10:02 23° NNE visible
12 Dec 2.1 23:27:41 10° NW 23:29:35 23° NNW 23:29:35 23° NNW visible
13 Dec 2.8 23:48:12 10° NW 23:49:10 17° NW 23:49:10 17° NW visible
